Regional Weather Roundup
Issued by NWS

Home | Current Version | Previous Version | Graphics & Text | Print | Product List | Glossary On
Versions: 1 2 3 4 5 6 7 8 9 10 11 12 13 14 15 16 17 18 19 20 21 22 23 24 25 26 27 28 29 30 31 32 33 34 35 36 37 38 39 40 41 42 43 44 45 46 47 48 49 50
000
ASUS43 KMKX 162100
RWRWI

WISCONSIN REGIONAL WEATHER ROUNDUP
NATIONAL WEATHER SERVICE MILWAUKEE/SULLIVAN WI
400 PM CDT WED APR 16 2014

NOTE: "FAIR" INDICATES FEW OR NO CLOUDS BELOW 12,000 FEET WITH NO
SIGNIFICANT WEATHER AND/OR OBSTRUCTIONS TO VISIBILITY.

WIZ001-002-006>008-014>016-023>028-162200-
NORTHWEST WISCONSIN

CITY           SKY/WX    TMP DP  RH WIND       PRES   REMARKS
SUPERIOR ARPT  LGT SNOW  28  26  95 NE16G26   30.14S VSB 3/4 WCI  15
ASHLAND        SNOW      27  26  96 NE17      30.15R VSB 1/4 WCI  14
HAYWARD        SNOW      29  26  89 NE10      30.04F VSB 1/4 WCI  20
SIREN          SNOW      30  28  94 E7        30.01S VSB 1/2 WCI  23
RICE LAKE      CLOUDY    35  27  71 E14G20    29.98F WCI  26
LADYSMITH      CLOUDY    36  28  73 E13       30.03F WCI  27
EAU CLAIRE     NOT AVBL
MENOMONIE      CLOUDY    42  31  63 NE12      29.91F
NEW RICHMOND   CLOUDY    36  28  74 NE16      29.92S WCI  26
OSCEOLA        CLOUDY    34  29  83 NE13      29.97R WCI  25
$$

WIZ003>005-009-010-017-018-162200-
NORTH CENTRAL WISCONSIN

CITY           SKY/WX    TMP DP  RH WIND       PRES   REMARKS
WOODRUFF       LGT SNOW  32  27  83 SE14      30.09S VSB 1   WCI  22
RHINELANDER    CLOUDY    29  25  85 SE21      30.10S WCI  16
EAGLE RIVER    CLOUDY    29  23  78 SE10G21   30.11F WCI  20
LAND O LAKES   LGT SNOW  29  25  87 SE7G20    30.13S VSB 3/4 WCI  21
PHILLIPS       CLOUDY    31  26  80 E18       30.05F WCI  19
TOMAHAWK       CLOUDY    31  26  81 SE7G17    30.07S WCI  25
MEDFORD        CLOUDY    35  27  74 E12G21    30.00S WCI  26
MERRILL        CLOUDY    33  28  82 CALM      30.06F
$$

WIZ029-030-035-036-043>047-162200-
CENTRAL WISCONSIN

CITY           SKY/WX    TMP DP  RH WIND       PRES   REMARKS
WAUSAU         CLOUDY    37  28  70 E17       30.04F WCI  27
MOSINEE        SUNNY     37  28  70 E12G23    30.05F WCI  30
MARSHFIELD     CLOUDY    43  29  57 SE16G31   29.99F
STEVENS POINT  CLOUDY    40  26  59 SE12G20   30.07F WCI  32
WAUPACA        CLOUDY    45  30  57 SE18      30.10F
WAUTOMA        NOT AVBL
WISC RAPIDS    CLOUDY    45  28  51 SE18G26   30.02F
CAMP DOUGLAS   NOT AVBL
$$

WIZ011>013-019>022-031-037>040-048>050-162200-
NORTHEAST WISCONSIN

CITY           SKY/WX    TMP DP  RH WIND       PRES   REMARKS
ANTIGO         CLOUDY    31  28  88 SE15G24   30.10F WCI  20
STURGEON BAY   CLOUDY    36  21  55 SE14G21   30.25F WCI  27
GREEN BAY      CLOUDY    37  27  67 SE21G30   30.20S WCI  26
MANITOWOC      NOT AVBL
APPLETON       PTSUNNY   39  27  60 SE21G28   30.14F WCI  29
CLINTONVILLE   CLOUDY    41  28  60 SE20G25   30.13F
OSHKOSH        PTSUNNY   43  29  57 SE21G30   30.12F
$$

WIZ032>034-041-042-053>061-162200-
SOUTHWEST WISCONSIN

CITY           SKY/WX    TMP DP  RH WIND       PRES   REMARKS
LA CROSSE      CLOUDY    54  28  36 SE18G28   29.89F
SPARTA         CLOUDY    51  27  38 SE12G17   29.95F
VIROQUA        FAIR      51  29  44 S22G33    29.93F
BOSCOBEL       PTSUNNY   56  25  30 S13G32    29.97F
PRAIRIE DU CHI PTSUNNY   56  25  30 S18G31    29.92F
PLATTEVILLE    FAIR      52  29  42 S25G35    30.00F
$$

WIZ056-057-062-063-064-067-068-162200-
SOUTH CENTRAL WISCONSIN

CITY           SKY/WX    TMP DP  RH WIND       PRES   REMARKS
BARABOO/DELLS  PTSUNNY   49  29  44 S25G33    30.03F
LONE ROCK      NOT AVBL
WATERTOWN      PTSUNNY   49  27  42 SE21G28   30.11S
MADISON        CLOUDY    51  30  44 SE30G41   30.06F
MIDDLETON      FAIR      52  27  38 S25G38    30.06S
MONROE         MOSUNNY   52  30  43 S28G38    30.04F
JANESVILLE     MOSUNNY   54  27  35 SE26G36   30.09F
$$

WIZ051-052-058>065-066-070>072-162200-
SOUTHEAST WISCONSIN

CITY           SKY/WX    TMP DP  RH WIND       PRES   REMARKS
MILWAUKEE      PTSUNNY   44  27  51 SE23G33   30.19F
WAUKESHA       MOSUNNY   45  28  53 SE20G28   30.16F
MILWAUKEE/TIMM SUNNY     45  25  45 SE17G28   30.18F
RACINE         MOSUNNY   43  28  55 SE21G28   30.21F
BURLINGTON     MOSUNNY   49  25  38 S15G26    30.15S
KENOSHA        MOSUNNY   46  27  47 SE20G30   30.18F
FOND DU LAC    PTSUNNY   45  30  55 SE22G33   30.12F
SHEBOYGAN      CLOUDY    38  25  59 SE18G31   30.20F WCI  28
WEST BEND      PTSUNNY   43  27  52 SE17G26   30.16F
JUNEAU         PTSUNNY   48  23  36 SE24      30.12F
$$

LSZ147-162-162200-
LAKE SUPERIOR

STATION/POSITION TIME  TEMP    WIND        PRES    WAVE
                       AIR SEA DIR/SP/G            HT/PER
                 (UTC) (F)     (DEG/KT/KT) (MB)    (FT/S)
DEVILS ISLAND    2000   28      60/ 23/ 25 1023.6F
PORT WING        2040   28      40/ 17/ 20 1021.0S
SAXON HARBOR     2000           50/ 14/ 16 1021.0
$$

LMZ867-665-643>646-162200-
LAKE MICHIGAN

STATION/POSITION TIME  TEMP    WIND        PRES    WAVE
                       AIR SEA DIR/SP/G            HT/PER
                 (UTC) (F)     (DEG/KT/KT) (MB)    (FT/S)
NORTHPORT PIER   2000   31     130/ 17/ 19 1026.1F
SISTER BAY       2008   33     140/  8/ 11   N/A
SHEBOYGAN LAKESH 2000   36     140/ 23/ 26 1024.1F
PORT WASHINGTON  2000   38     140/ 18/ 22 1023.4
MILWAUKEE LAKESH 2000   37     140/ 20/ 22   N/A
KENOSHA   LAKESH 2000   40     140/ 21/ 24   N/A
$$

TC  - TEMPERATURE IN CELSIUS
VSB - VISIBILITY IN STATUTE MILES
WCI - WIND CHILL INDEX
HX  - HEAT INDEX




USA.gov is the U.S. government's official web portal to all federal, state and local government web resources and services.